Miscellaneous Local Product
Issued by NWS North Platte, NE

Home | Current Version | Previous Version | Graphics & Text | Print | Product List | Glossary On
Versions: 1 2 3 4 5 6 7 8 9 10 11 12 13 14 15 16 17 18 19 20 21 22 23 24 25 26 27 28 29 30 31 32 33 34 35 36 37 38 39 40 41 42 43 44 45 46 47 48 49 50
000
AXUS43 KLBF 271910
MISLBF


WESTERN AND NORTH CENTRAL NEBRASKA HOURLY WEATHER ROUNDUP
NATIONAL WEATHER SERVICE NORTH PLATTE NE
200 PM CDT WED MAY 27 2015

***STATIONS NOT REPORTING VARIABLES SUCH AS SKY/WEATHER OR
PRESSURE ARE PROVIDED BY THE NEBRASKA DEPARTMENT OF
ROADS...RAWS...AND APRS NETWORKS...AND ARE NOT UNDER
NATIONAL WEATHER SERVICE QUALITY CONTROL***

...OBSERVATIONS IN AND NEAR THE EASTERN PANHANDLE OF NEBRASKA...

CITY           SKY/WX    TMP DP  RH WIND       PRES   REMARKS
PINE RIDGE     MOSUNNY   72  54  53 S16G24    29.99F
CHADRON        MOSUNNY   71  53  52 S8        29.97F
ALLIANCE       MOSUNNY   71  55  56 S15G23    30.01F
SIDNEY         MOSUNNY   70  57  63 SE9G23    30.05F
WHITECLAY        N/A     73  53  48 S15         N/A
BIG SPRINGS      N/A     71  58  63 SE14        N/A
$$

...OBSERVATIONS IN NORTH CENTRAL NEBRASKA...

CITY           SKY/WX    TMP DP  RH WIND       PRES   REMARKS
VALENTINE      CLOUDY    74  45  35 S18G30    30.04F
THEDFORD       PTSUNNY   75  50  42 SE16G22   30.07F
AINSWORTH      CLOUDY    74  49  40 S15       30.06F
O`NEILL        PTSUNNY   79  48  34 S8        30.07S
ORD            MOSUNNY   78  45  30 S14G20    30.06F
BROKEN BOW     CLOUDY    76  49  38 S17G24    30.08F
BROWNLEE         N/A     76  46  34 SE17        N/A
VALENTINE NWR    N/A     69  44  41 S16         N/A
SPRINGVIEW       N/A     78  52  40 SW6         N/A
HALSEY           N/A     72  45  37 SE12        N/A
BREWSTER         N/A     80  49  34 S18         N/A
ROSE             N/A     78  52  39 SE10        N/A
NEWPORT          N/A     79  48  33 S10         N/A
SARGENT          N/A     76  48  37 S5          N/A
COMSTOCK         N/A     82  51  34 S12         N/A
EWING            N/A     80  53  39 S3          N/A
$$

...OBSERVATIONS IN SOUTHWEST NEBRASKA AND FAR NORTHEAST COLORADO...

CITY           SKY/WX    TMP DP  RH WIND       PRES   REMARKS
WRAY           MOCLDY    73  58  59 SE14G21   30.03F
HOLYOKE        FAIR      73  55  53 SE14      30.04F
IMPERIAL       MOSUNNY   72  57  59 SE17G28   30.04F
OGALLALA       CLOUDY    72  56  57 S12       30.04F
NORTH PLATTE   PTSUNNY   76  56  49 S17G25    30.05F
MCCOOK         CLOUDY    69  57  65 SE15      30.07F
LEXINGTON      PTSUNNY   75  54  47 S7        30.07F
PAXTON           N/A     71  59  66 SE16        N/A
GOTHENBURG       N/A     75  50  41 SE8         N/A
CALLAWAY         N/A     76  54  46 S16         N/A
$$

...NORTH PLATTE AREA...

CITY           SKY/WX    TMP DP  RH WIND       PRES   REMARKS
AIRPORT        PTSUNNY   76  56  49 S17G25    30.05F
$$

...SOME WEATHER OBSERVATIONS FROM AROUND THE REGION...

CITY           SKY/WX    TMP DP  RH WIND       PRES   REMARKS
DENVER         PTSUNNY   72  45  37 E8        30.07F
LARAMIE        MOSUNNY   62  38  40 W14G22    30.13F
CHEYENNE       PTSUNNY   64  41  42 S7        30.10F
SCOTTSBLUFF    MOSUNNY   70  50  49 SE5       30.00F
RAPID CITY     PTSUNNY   70  56  61 SE14G25   29.95F
PIERRE         MOSUNNY   79  46  31 S18G28    29.98F
WINNER         CLOUDY    77  49  37 S15       30.03F
SIOUX FALLS    MOSUNNY   82  53  36 CALM      30.01F
OMAHA          MOSUNNY   82  49  31 SW6       30.06S
GRAND ISLAND   MOSUNNY   79  43  27 S7        30.09S
KANSAS CITY    SUNNY     79  54  41 CALM      30.10S
WICHITA        PTSUNNY   80  64  58 SE10      30.09F
HAYS           CLOUDY    70  57  64 SE8       30.10F
LIBERAL        SUNNY     82  54  36 S17       30.05F
GOODLAND       MOSUNNY   76  58  53 S20G26    30.05F
$$



USA.gov is the U.S. government's official web portal to all federal, state and local government web resources and services.